This is the latest recevied weather packets stored in our database for station/object K0CVS. If no packets are shown the sender has not sent any weather packets the latest 10 day(s).
| Time | Temp. | Humidity | Pressure | Rain* | Wind** | Luminosity | Snow |
|---|---|---|---|---|---|---|---|
| 1777743615 | 16.11° C | 33% | 1022.2 hPa | 0 mm | - | 736 W/m² | - |
| 1777743313 | 15.56° C | 36% | 1022 hPa | 0 mm | - | 733 W/m² | - |
| 1777743011 | 15.56° C | 35% | 1022.1 hPa | 0 mm | - | 726 W/m² | - |
| 1777742708 | 15.56° C | 34% | 1021.9 hPa | 0 mm | - | 723 W/m² | - |
| 1777742404 | 15.56° C | 34% | 1022.1 hPa | 0 mm | - | 725 W/m² | - |
| 1777742099 | 16.11° C | 35% | 1022.2 hPa | 0 mm | - | 723 W/m² | - |
| 1777741797 | 16.11° C | 35% | 1022.2 hPa | 0 mm | - | 715 W/m² | - |
| 1777741494 | 15.56° C | 36% | 1021.9 hPa | 0 mm | - | 711 W/m² | - |
| 1777741189 | 15° C | 36% | 1022 hPa | 0 mm | - | 704 W/m² | - |
| 1777740887 | 15.56° C | 34% | 1022.1 hPa | 0 mm | - | 695 W/m² | - |
| 1777740584 | 15.56° C | 34% | 1022.2 hPa | 0 mm | - | 686 W/m² | - |
| 1777740275 | 15° C | 35% | 1022.3 hPa | 0 mm | - | 675 W/m² | - |
| 1777739971 | 15° C | 35% | 1022.2 hPa | 0 mm | - | 669 W/m² | - |
| 1777739668 | 15° C | 35% | 1022.2 hPa | 0 mm | - | 664 W/m² | - |
| 1777739366 | 14.44° C | 36% | 1022.2 hPa | 0 mm | - | 656 W/m² | - |
| 1777739062 | 13.89° C | 35% | 1022.3 hPa | 0 mm | - | 649 W/m² | - |
| 1777738759 | 13.89° C | 35% | 1022.4 hPa | 0 mm | - | 639 W/m² | - |
| 1777738455 | 13.89° C | 37% | 1022.4 hPa | 0 mm | - | 598 W/m² | - |
| 1777738154 | 13.89° C | 40% | 1022.4 hPa | 0 mm | - | 77 W/m² | - |
| 1777737851 | 13.89° C | 40% | 1022.3 hPa | 0 mm | - | 60 W/m² | - |
| 1777737550 | 13.33° C | 41% | 1022.3 hPa | 0 mm | - | 69 W/m² | - |
| 1777737248 | 13.33° C | 39% | 1022.3 hPa | 0 mm | - | 54 W/m² | - |
| 1777736943 | 13.33° C | 39% | 1022.4 hPa | 0 mm | - | 80 W/m² | - |
| 1777736037 | 12.78° C | 41% | 1022.2 hPa | 0 mm | - | 84 W/m² | - |
| 1777735734 | 12.78° C | 43% | 1022.2 hPa | 0 mm | - | 251 W/m² | - |
* Rain latest hour (hover to see other rain measurements)
** Current wind speed in m/s (hover to see current wind gust speed)